CUSAT 2 & FALCON 9 R/B (39271 NORAD) Tracking and Keplerian Element Data

This shows tracking and keplerian element data for the satellite.

Feedback or suggestion? Click here.




ElementValue
Catalog39271
NameCUSAT 2 & FALCON 9 R/B
Epoch Orbit31435
Epoch Day282.88917783
Epoch Year2019
RAAN177.1076
Inclination80.9696
Eccentricity0.0596908
Argument of Perigee205.3683
Mean Anonmoly151.7082
Mean Motion14.45879875
Decay Rate4.005E-05
L11 39271U 13055G 19282.88917783 .00004005 00000-0 97963-4 0 9996
L22 39271 80.9696 177.1076 0596908 205.3683 151.7082 14.45879875314353

Live tracking and technical data element details for CUSAT 2 & FALCON 9 R/B (NORAD 39271). CUSAT 2 & FALCON 9 R/B can be tracked NOW for your location showing map with azimuth and elevation plus other details from your city location.

Track the satellite on the map from your city or location and see movement details for azimuth, elevation, latitude, longitude, range, height, and movement on the map or in text.







IsCatalogInMostPopularTable: catalog: 39271, numindb: 376
Update: records affected: 1



GetName: 39271 CUSAT 2 & FALCON 9 R/B

Hit Count: updated at: Mon, 14 Oct 2019 01:56:41 GMT